Terminal Aerodrome Forecast
Issued by NWS

Home | Current Version | Previous Version | Text Only | Print | Product List | Glossary On
Versions: 1 2 3 4 5 6 7 8 9 10 11 12 13 14
000
FTUS41 KGYX 252320
TAFRKD
TAF
KRKD 252320Z 2600/2624 22008KT P6SM SKC
     FM260300 22007KT P6SM SCT050 OVC100
     FM260800 24007KT 2SM BR BKN012 OVC030
     FM261400 21007KT P6SM SCT050 BKN100
     FM261700 29008KT P6SM SCT100
      AMD LTD TO CLD VIS AND WIND=

USA.gov is the U.S. government's official web portal to all federal, state and local government web resources and services.